| time (UTC) | temp F | wind direction | speed knots | gust knots | rain 1hr in | rain 24hr in | rain mn in | humidity % | barometer mb |
| 20260506144725 | 41 | 231 | 3.5 | 6.1 | 0.00 | 0.00 | 0.00 | 48 | 1008.3 |
| 20260506142726 | 40 | 273 | 2.6 | 6.1 | 0.00 | 0.00 | 0.00 | 57 | 1008.3 |
| 20260506140726 | 39 | 314 | 5.2 | 9.6 | 0.00 | 0.00 | 0.00 | 62 | 1008.3 |
| 20260506134726 | 39 | 308 | 7.0 | 9.6 | 0.00 | 0.00 | 0.00 | 61 | 1008.3 |
| 20260506132726 | 40 | 307 | 4.3 | 8.7 | 0.00 | 0.00 | 0.00 | 52 | 1008.1 |
| 20260506124725 | 40 | 3 | 1.7 | 5.2 | 0.00 | 0.00 | 0.00 | 53 | 1007.8 |
| 20260506122725 | 39 | 330 | 5.2 | 8.7 | 0.00 | 0.00 | 0.00 | 59 | 1007.8 |
| 20260506120726 | 39 | 261 | 2.6 | 5.2 | 0.00 | 0.00 | 0.00 | 58 | 1007.7 |
| 20260506114726 | 37 | 274 | 6.1 | 9.6 | 0.00 | 0.00 | 0.00 | 66 | 1007.6 |
| 20260506112726 | 36 | 288 | 10.4 | 14.8 | 0.00 | 0.00 | 0.00 | 72 | 1007.4 |
| 20260506110725 | 39 | 357 | 4.3 | 6.1 | 0.00 | 0.00 | 0.00 | 50 | 1007.0 |
| 20260506104727 | 39 | 271 | 3.5 | 6.1 | 0.00 | 0.00 | 0.00 | 49 | 1006.8 |
| 20260506102727 | 38 | 306 | 3.5 | 7.0 | 0.00 | 0.00 | 0.00 | 54 | 1006.6 |
| 20260506100729 | 38 | 291 | 7.0 | 9.6 | 0.00 | 0.00 | 0.00 | 51 | 1006.5 |
| 20260506094728 | 38 | 284 | 6.1 | 10.4 | 0.00 | 0.00 | 0.00 | 47 | 1006.2 |
| 20260506092728 | 38 | 262 | 5.2 | 8.7 | 0.00 | 0.00 | 0.00 | 47 | 1006.0 |
| 20260506090727 | 38 | 284 | 5.2 | 10.4 | 0.00 | 0.00 | 0.00 | 50 | 1005.9 |
| 20260506084728 | 38 | 23 | 3.5 | 8.7 | 0.00 | 0.00 | 0.00 | 48 | 1005.8 |
| 20260506082728 | 37 | 273 | 5.2 | 7.8 | 0.00 | 0.00 | 0.00 | 52 | 1005.6 |
| 20260506080727 | 37 | 24 | 6.1 | 9.6 | 0.00 | 0.00 | 0.00 | 52 | 1005.4 |
| 20260506072729 | 38 | 20 | 4.3 | 10.4 | 0.00 | 0.00 | 0.00 | 53 | 1005.1 |
| 20260506070728 | 37 | 339 | 3.5 | 5.2 | 0.00 | 0.00 | 0.00 | 55 | 1005.1 |
| 20260506060727 | 35 | 352 | 2.6 | 5.2 | 0.00 | 0.00 | 0.00 | 67 | 1004.8 |
| 20260506050727 | 33 | 2 | 4.3 | 6.1 | 0.00 | 0.00 | 0.00 | 72 | 1004.5 |
| 20260506044727 | 34 | 351 | 4.3 | 7.8 | 0.00 | 0.00 | 0.00 | 69 | 1004.3 |
| 20260506042727 | 34 | 18 | 3.5 | 7.0 | 0.00 | 0.00 | 0.00 | 73 | 1004.2 |
| 20260506040727 | 34 | 22 | 3.5 | 4.3 | 0.00 | 0.00 | 0.00 | 75 | 1004.0 |
| 20260506034728 | 33 | 254 | 1.7 | 2.6 | 0.00 | 0.00 | 0.00 | 82 | 1003.9 |
| 20260506032727 | 31 | 51 | 0.9 | 1.7 | 0.00 | 0.00 | 0.00 | 86 | 1003.8 |
| 20260506030727 | 29 | 32 | 3.5 | 5.2 | 0.00 | 0.00 | 0.00 | 88 | 1003.6 |
| 20260506024727 | 30 | 45 | 3.5 | 5.2 | 0.00 | 0.00 | 0.00 | 87 | 1003.4 |
| 20260506022727 | 30 | 38 | 2.6 | 3.5 | 0.00 | 0.00 | 0.00 | 84 | 1003.2 |
| 20260506020726 | 31 | 20 | 2.6 | 2.6 | 0.00 | 0.00 | 0.00 | 82 | 1003.1 |
| 20260506014726 | 31 | 22 | 2.6 | 3.5 | 0.00 | 0.00 | 0.00 | 82 | 1003.0 |
| 20260506012726 | 31 | 22 | 3.5 | 4.3 | 0.00 | 0.00 | 0.00 | 84 | 1002.8 |
| 20260506010727 | 31 | 27 | 2.6 | 3.5 | 0.00 | 0.00 | 0.00 | 81 | 1002.6 |
| 20260506004725 | 31 | 19 | 3.5 | 5.2 | 0.00 | 0.00 | 0.00 | 82 | 1002.5 |
| 20260506002726 | 32 | 23 | 3.5 | 5.2 | 0.00 | 0.00 | 0.00 | 79 | 1002.3 |
| 20260506000726 | 32 | 16 | 3.5 | 4.3 | 0.00 | 0.00 | 0.00 | 77 | 1002.2 |
| 20260505234726 | 32 | 16 | 4.3 | 5.2 | 0.00 | 0.00 | 0.00 | 78 | 1002.1 |
| 20260505232726 | 32 | 18 | 5.2 | 6.1 | 0.00 | 0.00 | 0.00 | 78 | 1001.9 |
| 20260505230726 | 31 | 34 | 3.5 | 4.3 | 0.00 | 0.00 | 0.00 | 81 | 1001.8 |
| 20260505224726 | 32 | 38 | 3.5 | 3.5 | 0.00 | 0.00 | 0.00 | 80 | 1001.6 |
| 20260505222726 | 32 | 20 | 3.5 | 5.2 | 0.00 | 0.00 | 0.00 | 79 | 1001.5 |
| 20260505220726 | 32 | 47 | 5.2 | 7.0 | 0.00 | 0.00 | 0.00 | 78 | 1001.4 |
| 20260505214726 | 34 | 36 | 7.0 | 8.7 | 0.00 | 0.00 | 0.00 | 73 | 1001.1 |
| 20260505212726 | 34 | 39 | 7.8 | 9.6 | 0.00 | 0.00 | 0.00 | 74 | 1000.9 |
| 20260505210725 | 35 | 31 | 7.0 | 11.3 | 0.00 | 0.00 | 0.00 | 73 | 1000.7 |
| 20260505204726 | 35 | 21 | 6.1 | 9.6 | 0.00 | 0.00 | 0.00 | 74 | 1000.6 |
| 20260505202726 | 35 | 33 | 5.2 | 7.8 | 0.00 | 0.00 | 0.00 | 76 | 1000.4 |
| 20260505200725 | 35 | 29 | 6.1 | 7.8 | 0.00 | 0.00 | 0.00 | 77 | 1000.2 |
| 20260505194724 | 35 | 23 | 7.0 | 11.3 | 0.00 | 0.00 | 0.00 | 80 | 1000.1 |
| 20260505192725 | 35 | 16 | 8.7 | 12.2 | 0.00 | 0.00 | 0.00 | 81 | 1000.0 |
| 20260505190725 | 35 | 16 | 9.6 | 15.6 | 0.00 | 0.00 | 0.00 | 83 | 999.8 |
| 20260505184725 | 36 | 19 | 9.6 | 13.9 | 0.00 | 0.00 | 0.00 | 75 | 999.6 |
| 20260505182724 | 36 | 21 | 10.4 | 13.9 | 0.00 | 0.00 | 0.00 | 76 | 999.3 |
| 20260505180724 | 37 | 24 | 10.4 | 14.8 | 0.00 | 0.00 | 0.00 | 74 | 999.0 |
| 20260505174724 | 37 | 20 | 12.2 | 16.5 | 0.00 | 0.00 | 0.00 | 75 | 998.7 |
| 20260505172724 | 37 | 16 | 9.6 | 14.8 | 0.00 | 0.00 | 0.00 | 75 | 998.5 |
| 20260505170724 | 38 | 30 | 9.6 | 14.8 | 0.00 | 0.00 | 0.00 | 74 | 998.3 |
| 20260505164724 | 37 | 40 | 10.4 | 15.6 | 0.00 | 0.00 | 0.00 | 75 | 998.2 |
| 20260505162724 | 37 | 33 | 11.3 | 17.4 | 0.00 | 0.00 | 0.00 | 76 | 998.0 |
| 20260505160724 | 38 | 53 | 12.2 | 15.6 | 0.00 | 0.00 | 0.00 | 81 | 997.9 |
| 20260505152724 | 38 | 46 | 10.4 | 14.8 | 0.00 | 0.00 | 0.00 | 83 | 997.4 |
| 20260505150724 | 38 | 53 | 9.6 | 12.2 | 0.00 | 0.00 | 0.00 | 89 | 997.3 |